Time,TemperatureF,DewpointF,PressureIn,WindDirection,WindDirectionDegrees,WindSpeedMPH,WindSpeedGustMPH,Humidity,HourlyPrecipIn,Conditions,Clouds,dailyrainin,SoftwareType,DateUTC
2013-07-02 00:01:00,63.0,60.3,30.06,NE,45,4.0,6.0,91,0.00,,---,0.00,VWS V14.01,2013-07-02 04:01:00,
2013-07-02 00:02:00,63.0,60.3,30.06,ENE,68,6.0,8.0,91,0.00,,---,0.00,VWS V14.01,2013-07-02 04:02:00,
2013-07-02 00:07:00,63.0,60.3,30.05,ENE,68,3.0,8.0,91,0.00,,---,0.00,VWS V14.01,2013-07-02 04:07:00,
2013-07-02 00:12:00,63.0,60.3,30.06,ENE,68,6.0,10.0,91,0.00,,---,0.00,VWS V14.01,2013-07-02 04:12:00,
2013-07-02 00:17:00,63.0,60.3,30.06,East,90,5.0,11.0,91,0.00,,---,0.00,VWS V14.01,2013-07-02 04:17:00,
2013-07-02 00:22:00,63.0,60.3,30.06,NNE,22,3.0,10.0,91,0.00,,---,0.00,VWS V14.01,2013-07-02 04:22:00,
2013-07-02 00:27:00,63.0,60.6,30.07,NE,45,1.0,10.0,92,0.00,,---,0.00,VWS V14.01,2013-07-02 04:27:00,
2013-07-02 00:32:00,63.0,60.6,30.06,East,90,5.0,10.0,92,0.00,,---,0.00,VWS V14.01,2013-07-02 04:32:00,
2013-07-02 00:37:00,63.0,60.6,30.06,NNE,22,3.0,10.0,92,0.00,,---,0.00,VWS V14.01,2013-07-02 04:37:00,
2013-07-02 00:43:00,63.0,60.6,30.06,NNE,22,3.0,7.0,92,0.00,,---,0.00,VWS V14.01,2013-07-02 04:43:00,
2013-07-02 00:48:00,63.0,60.6,30.06,ESE,112,3.0,9.0,92,0.00,,---,0.00,VWS V14.01,2013-07-02 04:48:00,
2013-07-02 00:53:00,63.0,60.6,30.07,NE,45,5.0,9.0,92,0.00,,---,0.00,VWS V14.01,2013-07-02 04:53:00,
2013-07-02 00:58:00,63.0,60.6,30.06,ENE,68,6.0,10.0,92,0.00,,---,0.00,VWS V14.01,2013-07-02 04:58:00,
2013-07-02 01:03:00,63.0,60.6,30.06,ENE,68,3.0,8.0,92,0.00,,---,0.00,VWS V14.01,2013-07-02 05:03:00,
2013-07-02 01:08:00,63.0,60.6,30.06,NE,45,5.0,8.0,92,0.00,,---,0.00,VWS V14.01,2013-07-02 05:08:00,
2013-07-02 01:13:00,63.0,60.6,30.06,ENE,68,3.0,8.0,92,0.00,,---,0.00,VWS V14.01,2013-07-02 05:13:00,
2013-07-02 01:18:00,63.0,60.6,30.06,ENE,68,3.0,8.0,92,0.00,,---,0.00,VWS V14.01,2013-07-02 05:18:00,
2013-07-02 01:23:00,63.0,60.6,30.07,ENE,68,2.0,8.0,92,0.00,,---,0.00,VWS V14.01,2013-07-02 05:23:00,
2013-07-02 01:28:00,63.0,60.6,30.07,ENE,68,3.0,8.0,92,0.00,,---,0.00,VWS V14.01,2013-07-02 05:28:00,
2013-07-02 01:33:00,63.0,60.6,30.07,ENE,68,1.0,8.0,92,0.00,,---,0.00,VWS V14.01,2013-07-02 05:33:00,
2013-07-02 01:38:00,63.0,60.6,30.06,East,90,4.0,8.0,92,0.00,,---,0.00,VWS V14.01,2013-07-02 05:38:00,
2013-07-02 01:44:00,62.0,59.7,30.07,ENE,68,2.0,6.0,92,0.00,,---,0.00,VWS V14.01,2013-07-02 05:44:00,
2013-07-02 01:49:00,63.0,60.6,30.06,NE,45,2.0,6.0,92,0.00,,---,0.00,VWS V14.01,2013-07-02 05:49:00,
2013-07-02 01:54:00,62.0,59.7,30.06,ESE,112,4.0,9.0,92,0.00,,---,0.00,VWS V14.01,2013-07-02 05:54:00,
2013-07-02 01:59:00,62.0,60.0,30.06,NE,45,2.0,9.0,93,0.00,,---,0.00,VWS V14.01,2013-07-02 05:59:00,
2013-07-02 02:04:00,62.0,60.0,30.06,ENE,68,3.0,8.0,93,0.00,,---,0.00,VWS V14.01,2013-07-02 06:04:00,
2013-07-02 02:09:00,62.0,60.0,30.06,ENE,68,1.0,9.0,93,0.00,,---,0.00,VWS V14.01,2013-07-02 06:09:00,
2013-07-02 02:14:00,62.0,60.0,30.05,ENE,68,2.0,10.0,93,0.00,,---,0.00,VWS V14.01,2013-07-02 06:14:00,
2013-07-02 02:19:00,62.0,60.3,30.05,ESE,112,2.0,10.0,94,0.00,,---,0.00,VWS V14.01,2013-07-02 06:19:00,
2013-07-02 02:24:00,62.0,60.3,30.05,ESE,112,2.0,12.0,94,0.00,,---,0.00,VWS V14.01,2013-07-02 06:24:00,
2013-07-02 02:29:00,62.0,60.3,30.05,ENE,68,2.0,12.0,94,0.00,,---,0.00,VWS V14.01,2013-07-02 06:29:00,
2013-07-02 02:34:00,62.0,60.3,30.04,East,90,6.0,12.0,94,0.00,,---,0.00,VWS V14.01,2013-07-02 06:34:00,
2013-07-02 02:39:00,62.0,60.3,30.05,ENE,68,3.0,12.0,94,0.00,,---,0.00,VWS V14.01,2013-07-02 06:39:00,
2013-07-02 02:44:00,62.0,60.3,30.04,ENE,68,3.0,6.0,94,0.00,,---,0.00,VWS V14.01,2013-07-02 06:44:00,
2013-07-02 02:50:00,62.0,60.3,30.04,East,90,1.0,10.0,94,0.00,,---,0.00,VWS V14.01,2013-07-02 06:50:00,
2013-07-02 02:55:00,62.0,60.3,30.03,NNE,22,2.0,10.0,94,0.00,,---,0.00,VWS V14.01,2013-07-02 06:55:00,
2013-07-02 03:00:00,62.0,60.3,30.03,ENE,68,3.0,10.0,94,0.00,,---,0.00,VWS V14.01,2013-07-02 07:00:00,
2013-07-02 03:05:00,62.0,60.3,30.03,ENE,68,5.0,8.0,94,0.00,,---,0.00,VWS V14.01,2013-07-02 07:05:00,
2013-07-02 03:10:00,61.0,59.3,30.03,East,90,5.0,8.0,94,0.00,,---,0.00,VWS V14.01,2013-07-02 07:10:00,
2013-07-02 03:15:00,61.0,59.6,30.02,ENE,68,2.0,8.0,95,0.00,,---,0.00,VWS V14.01,2013-07-02 07:15:00,
2013-07-02 03:20:00,61.0,59.6,30.02,ENE,68,2.0,3.0,95,0.00,,---,0.00,VWS V14.01,2013-07-02 07:20:00,
2013-07-02 03:25:00,61.0,59.6,30.02,SE,135,1.0,5.0,95,0.00,,---,0.00,VWS V14.01,2013-07-02 07:25:00,
2013-07-02 03:30:00,61.0,59.6,30.02,ENE,68,3.0,5.0,95,0.00,,---,0.00,VWS V14.01,2013-07-02 07:30:00,
2013-07-02 03:35:00,61.0,59.6,30.02,East,90,3.0,6.0,95,0.00,,---,0.00,VWS V14.01,2013-07-02 07:35:00,
2013-07-02 03:40:00,61.0,59.6,30.02,East,90,6.0,8.0,95,0.00,,---,0.00,VWS V14.01,2013-07-02 07:40:00,
2013-07-02 03:46:00,61.0,59.6,30.02,NE,45,4.0,10.0,95,0.00,,---,0.00,VWS V14.01,2013-07-02 07:46:00,
2013-07-02 03:51:00,61.0,59.6,30.03,ENE,68,3.0,10.0,95,0.00,,---,0.00,VWS V14.01,2013-07-02 07:51:00,
2013-07-02 03:56:00,61.0,59.6,30.02,East,90,3.0,10.0,95,0.00,,---,0.00,VWS V14.01,2013-07-02 07:56:00,
2013-07-02 04:01:00,61.0,59.6,30.02,East,90,0.0,3.0,95,0.00,,---,0.00,VWS V14.01,2013-07-02 08:01:00,
2013-07-02 04:06:00,61.0,59.6,30.02,ENE,68,4.0,6.0,95,0.00,,---,0.00,VWS V14.01,2013-07-02 08:06:00,
2013-07-02 04:11:00,61.0,59.6,30.03,East,90,1.0,6.0,95,0.00,,---,0.00,VWS V14.01,2013-07-02 08:11:00,
2013-07-02 04:16:00,61.0,59.6,30.03,SE,135,1.0,6.0,95,0.00,,---,0.00,VWS V14.01,2013-07-02 08:16:00,
2013-07-02 04:21:00,61.0,59.6,30.03,ENE,68,1.0,4.0,95,0.00,,---,0.00,VWS V14.01,2013-07-02 08:21:00,
2013-07-02 04:26:00,61.0,59.6,30.03,ENE,68,5.0,5.0,95,0.00,,---,0.00,VWS V14.01,2013-07-02 08:26:00,
2013-07-02 04:31:00,61.0,59.6,30.03,East,90,2.0,6.0,95,0.00,,---,0.00,VWS V14.01,2013-07-02 08:31:00,
2013-07-02 04:36:00,61.0,59.6,30.03,ESE,112,3.0,6.0,95,0.00,,---,0.00,VWS V14.01,2013-07-02 08:36:00,
2013-07-02 04:42:00,61.0,59.6,30.03,ENE,68,2.0,3.0,95,0.00,,---,0.00,VWS V14.01,2013-07-02 08:42:00,
2013-07-02 04:47:00,61.0,59.6,30.04,ESE,112,1.0,3.0,95,0.00,,---,0.00,VWS V14.01,2013-07-02 08:47:00,
2013-07-02 04:52:00,61.0,59.6,30.04,NE,45,0.0,3.0,95,0.00,,---,0.00,VWS V14.01,2013-07-02 08:52:00,
2013-07-02 04:57:00,61.0,59.6,30.03,ENE,68,2.0,3.0,95,0.00,,---,0.00,VWS V14.01,2013-07-02 08:57:00,
2013-07-02 05:02:00,61.0,59.6,30.03,NE,45,3.0,8.0,95,0.00,,---,0.00,VWS V14.01,2013-07-02 09:02:00,
2013-07-02 05:07:00,61.0,59.6,30.03,ENE,68,5.0,8.0,95,0.00,,---,0.00,VWS V14.01,2013-07-02 09:07:00,
2013-07-02 05:12:00,61.0,59.6,30.03,ENE,68,3.0,8.0,95,0.00,,---,0.00,VWS V14.01,2013-07-02 09:12:00,
2013-07-02 05:17:00,61.0,59.6,30.03,ESE,112,3.0,8.0,95,0.00,,---,0.00,VWS V14.01,2013-07-02 09:17:00,
2013-07-02 05:22:00,61.0,59.6,30.04,East,90,1.0,3.0,95,0.00,,---,0.00,VWS V14.01,2013-07-02 09:22:00,
2013-07-02 05:27:00,61.0,59.6,30.05,SSE,158,3.0,3.0,95,0.00,,---,0.00,VWS V14.01,2013-07-02 09:27:00,
2013-07-02 05:32:00,61.0,59.6,30.04,East,90,3.0,3.0,95,0.00,,---,0.00,VWS V14.01,2013-07-02 09:32:00,
2013-07-02 05:37:00,61.0,59.6,30.05,SE,135,1.0,4.0,95,0.00,,---,0.00,VWS V14.01,2013-07-02 09:37:00,
2013-07-02 05:42:00,61.0,59.6,30.05,East,90,1.0,3.0,95,0.00,,---,0.00,VWS V14.01,2013-07-02 09:42:00,
2013-07-02 05:48:00,61.0,59.6,30.05,East,90,2.0,3.0,95,0.00,,---,0.00,VWS V14.01,2013-07-02 09:48:00,
2013-07-02 05:53:00,61.0,59.6,30.05,SE,135,1.0,3.0,95,0.00,,---,0.00,VWS V14.01,2013-07-02 09:53:00,
2013-07-02 05:58:00,61.0,59.6,30.05,East,90,2.0,3.0,95,0.00,,---,0.00,VWS V14.01,2013-07-02 09:58:00,
2013-07-02 06:03:00,61.0,59.6,30.05,ENE,68,3.0,4.0,95,0.00,,---,0.00,VWS V14.01,2013-07-02 10:03:00,
2013-07-02 06:08:00,61.0,59.6,30.06,East,90,1.0,4.0,95,0.00,,---,0.00,VWS V14.01,2013-07-02 10:08:00,
2013-07-02 06:13:00,61.0,59.6,30.05,East,90,1.0,4.0,95,0.00,,---,0.00,VWS V14.01,2013-07-02 10:13:00,
2013-07-02 06:18:00,61.0,59.6,30.06,ENE,68,1.0,4.0,95,0.00,,---,0.00,VWS V14.01,2013-07-02 10:18:00,
2013-07-02 06:23:00,61.0,59.6,30.06,ENE,68,1.0,3.0,95,0.00,,---,0.00,VWS V14.01,2013-07-02 10:23:00,
2013-07-02 06:28:00,61.0,59.6,30.06,East,90,1.0,3.0,95,0.00,,---,0.00,VWS V14.01,2013-07-02 10:28:00,
2013-07-02 06:34:00,61.0,59.9,30.06,East,90,3.0,4.0,96,0.00,,---,0.00,VWS V14.01,2013-07-02 10:34:00,
2013-07-02 06:39:00,61.0,59.9,30.06,East,90,1.0,4.0,96,0.00,,---,0.00,VWS V14.01,2013-07-02 10:39:00,
2013-07-02 06:44:00,61.0,59.9,30.06,ENE,68,3.0,5.0,96,0.00,,---,0.00,VWS V14.01,2013-07-02 10:44:00,
2013-07-02 06:49:00,61.0,59.9,30.06,ESE,112,3.0,5.0,96,0.00,,---,0.00,VWS V14.01,2013-07-02 10:49:00,
2013-07-02 06:54:00,61.0,59.6,30.06,ESE,112,2.0,5.0,95,0.00,,---,0.00,VWS V14.01,2013-07-02 10:54:00,
2013-07-02 06:59:00,61.0,59.6,30.06,East,90,3.0,5.0,95,0.00,,---,0.00,VWS V14.01,2013-07-02 10:59:00,
2013-07-02 07:04:00,61.0,59.6,30.06,ENE,68,2.0,5.0,95,0.00,,---,0.00,VWS V14.01,2013-07-02 11:04:00,
2013-07-02 07:09:00,61.0,59.6,30.07,East,90,2.0,5.0,95,0.00,,---,0.00,VWS V14.01,2013-07-02 11:09:00,
2013-07-02 07:15:00,61.0,59.6,30.06,East,90,1.0,6.0,95,0.00,,---,0.00,VWS V14.01,2013-07-02 11:15:00,
2013-07-02 07:20:00,62.0,60.6,30.07,East,90,2.0,6.0,95,0.00,,---,0.00,VWS V14.01,2013-07-02 11:20:00,
2013-07-02 07:25:00,62.0,60.6,30.06,ESE,112,3.0,5.0,95,0.00,,---,0.00,VWS V14.01,2013-07-02 11:25:00,
2013-07-02 07:30:00,62.0,60.6,30.07,East,90,1.0,5.0,95,0.00,,---,0.00,VWS V14.01,2013-07-02 11:30:00,
2013-07-02 07:35:00,62.0,60.6,30.06,ESE,112,3.0,5.0,95,0.00,,---,0.00,VWS V14.01,2013-07-02 11:35:00,
2013-07-02 07:40:00,62.0,60.6,30.07,ENE,68,1.0,2.0,95,0.00,,---,0.00,VWS V14.01,2013-07-02 11:40:00,
2013-07-02 07:45:00,62.0,60.3,30.07,East,90,3.0,4.0,94,0.00,,---,0.00,VWS V14.01,2013-07-02 11:45:00,
2013-07-02 07:50:00,63.0,61.2,30.07,ESE,112,2.0,4.0,94,0.00,,---,0.00,VWS V14.01,2013-07-02 11:50:00,
2013-07-02 07:56:00,63.0,61.2,30.07,SE,135,1.0,4.0,94,0.00,,---,0.00,VWS V14.01,2013-07-02 11:56:00,
2013-07-02 08:01:00,63.0,61.2,30.07,East,90,1.0,2.0,94,0.00,,---,0.00,VWS V14.01,2013-07-02 12:01:00,
2013-07-02 08:06:00,63.0,61.2,30.07,SE,135,1.0,5.0,94,0.00,,---,0.00,VWS V14.01,2013-07-02 12:06:00,
2013-07-02 08:11:00,63.0,61.0,30.08,ESE,112,1.0,5.0,93,0.00,,---,0.00,VWS V14.01,2013-07-02 12:11:00,
2013-07-02 08:16:00,64.0,61.9,30.07,ESE,112,1.0,5.0,93,0.00,,---,0.00,VWS V14.01,2013-07-02 12:16:00,
2013-07-02 08:21:00,64.0,61.9,30.08,East,90,1.0,3.0,93,0.00,,---,0.00,VWS V14.01,2013-07-02 12:21:00,
2013-07-02 08:26:00,64.0,61.9,30.07,ESE,112,4.0,5.0,93,0.00,,---,0.00,VWS V14.01,2013-07-02 12:26:00,
2013-07-02 08:31:00,64.0,61.6,30.08,SE,135,3.0,5.0,92,0.00,,---,0.00,VWS V14.01,2013-07-02 12:31:00,
2013-07-02 08:37:00,65.0,62.6,30.08,ENE,68,1.0,5.0,92,0.00,,---,0.00,VWS V14.01,2013-07-02 12:37:00,
2013-07-02 08:42:00,65.0,62.3,30.08,SE,135,3.0,4.0,91,0.00,,---,0.00,VWS V14.01,2013-07-02 12:42:00,
2013-07-02 08:47:00,65.0,62.3,30.08,SSE,158,6.0,6.0,91,0.00,,---,0.00,VWS V14.01,2013-07-02 12:47:00,
2013-07-02 08:52:00,65.0,62.3,30.08,SE,135,3.0,6.0,91,0.00,,---,0.00,VWS V14.01,2013-07-02 12:52:00,
2013-07-02 08:57:00,65.0,62.0,30.08,SSE,158,4.0,7.0,90,0.00,,---,0.00,VWS V14.01,2013-07-02 12:57:00,
2013-07-02 09:02:00,66.0,63.0,30.08,ESE,112,2.0,6.0,90,0.00,,---,0.00,VWS V14.01,2013-07-02 13:02:00,
2013-07-02 09:07:00,67.0,64.0,30.08,ENE,68,2.0,6.0,90,0.00,,---,0.00,VWS V14.01,2013-07-02 13:07:00,
2013-07-02 09:13:00,68.0,64.3,30.08,ESE,112,1.0,6.0,88,0.00,,---,0.00,VWS V14.01,2013-07-02 13:13:00,
2013-07-02 09:18:00,68.0,64.0,30.08,East,90,3.0,6.0,87,0.00,,---,0.00,VWS V14.01,2013-07-02 13:18:00,
2013-07-02 09:23:00,69.0,64.3,30.08,NNW,338,4.0,5.0,85,0.00,,---,0.00,VWS V14.01,2013-07-02 13:23:00,
2013-07-02 09:28:00,69.0,64.0,30.08,NNE,22,2.0,5.0,84,0.00,,---,0.00,VWS V14.01,2013-07-02 13:28:00,
2013-07-02 09:29:00,69.0,64.0,30.08,NNE,22,2.0,5.0,84,0.00,,---,0.00,VWS V14.01,2013-07-02 13:29:00,
2013-07-02 09:34:00,69.0,63.6,30.07,North,0,2.0,5.0,83,0.00,,---,0.00,VWS V14.01,2013-07-02 13:34:00,
2013-07-02 09:39:00,69.0,63.6,30.07,North,0,2.0,5.0,83,0.00,,---,0.00,VWS V14.01,2013-07-02 13:39:00,
2013-07-02 09:44:00,69.0,64.0,30.08,NNW,338,0.0,3.0,84,0.00,,---,0.00,VWS V14.01,2013-07-02 13:44:00,
2013-07-02 09:49:00,70.0,64.9,30.08,SSE,158,1.0,3.0,84,0.00,,---,0.00,VWS V14.01,2013-07-02 13:49:00,
2013-07-02 09:55:00,70.0,64.9,30.08,South,180,3.0,5.0,84,0.00,,---,0.00,VWS V14.01,2013-07-02 13:55:00,
2013-07-02 10:00:00,70.0,64.6,30.08,SSE,158,5.0,6.0,83,0.00,,---,0.00,VWS V14.01,2013-07-02 14:00:00,
2013-07-02 10:05:00,70.0,64.9,30.08,WSW,248,1.0,5.0,84,0.00,,---,0.00,VWS V14.01,2013-07-02 14:05:00,
2013-07-02 10:10:00,70.0,64.6,30.08,South,180,5.0,8.0,83,0.00,,---,0.00,VWS V14.01,2013-07-02 14:10:00,
2013-07-02 10:15:00,71.0,65.6,30.08,SSW,202,4.0,8.0,83,0.00,,---,0.00,VWS V14.01,2013-07-02 14:15:00,
2013-07-02 10:20:00,71.0,65.2,30.08,SW,225,6.0,8.0,82,0.00,,---,0.00,VWS V14.01,2013-07-02 14:20:00,
2013-07-02 10:25:00,71.0,65.2,30.08,SW,225,8.0,8.0,82,0.00,,---,0.00,VWS V14.01,2013-07-02 14:25:00,
2013-07-02 10:30:00,71.0,65.2,30.08,SSW,202,3.0,10.0,82,0.00,,---,0.00,VWS V14.01,2013-07-02 14:30:00,
2013-07-02 10:36:00,71.0,64.9,30.08,South,180,3.0,10.0,81,0.00,,---,0.00,VWS V14.01,2013-07-02 14:36:00,
2013-07-02 10:41:00,72.0,65.9,30.08,SE,135,3.0,5.0,81,0.00,,---,0.00,VWS V14.01,2013-07-02 14:41:00,
2013-07-02 10:46:00,72.0,65.5,30.08,South,180,3.0,6.0,80,0.00,,---,0.00,VWS V14.01,2013-07-02 14:46:00,
2013-07-02 10:51:00,73.0,66.1,30.08,SSE,158,7.0,9.0,79,0.00,,---,0.00,VWS V14.01,2013-07-02 14:51:00,
2013-07-02 10:56:00,73.0,65.7,30.08,WSW,248,3.0,9.0,78,0.00,,---,0.00,VWS V14.01,2013-07-02 14:56:00,
2013-07-02 11:01:00,73.0,65.4,30.08,SW,225,5.0,7.0,77,0.00,,---,0.00,VWS V14.01,2013-07-02 15:01:00,
2013-07-02 11:07:00,73.0,65.4,30.08,SSE,158,2.0,8.0,77,0.00,,---,0.00,VWS V14.01,2013-07-02 15:07:00,
2013-07-02 11:12:00,73.0,65.4,30.08,WSW,248,3.0,10.0,77,0.00,,---,0.00,VWS V14.01,2013-07-02 15:12:00,
2013-07-02 11:17:00,74.0,66.0,30.09,SW,225,6.0,10.0,76,0.00,,---,0.00,VWS V14.01,2013-07-02 15:17:00,
2013-07-02 11:22:00,74.0,66.3,30.09,SE,135,5.0,9.0,77,0.00,,---,0.00,VWS V14.01,2013-07-02 15:22:00,
2013-07-02 11:27:00,74.0,65.6,30.09,SSE,158,7.0,9.0,75,0.00,,---,0.00,VWS V14.01,2013-07-02 15:27:00,
2013-07-02 11:32:00,74.0,66.0,30.09,SSW,202,5.0,9.0,76,0.00,,---,0.00,VWS V14.01,2013-07-02 15:32:00,
2013-07-02 11:37:00,74.0,65.2,30.08,SSE,158,5.0,9.0,74,0.00,,---,0.00,VWS V14.01,2013-07-02 15:37:00,
2013-07-02 11:43:00,75.0,65.8,30.09,South,180,5.0,9.0,73,0.00,,---,0.00,VWS V14.01,2013-07-02 15:43:00,
2013-07-02 11:48:00,75.0,65.8,30.09,SW,225,3.0,9.0,73,0.00,,---,0.00,VWS V14.01,2013-07-02 15:48:00,
2013-07-02 11:53:00,75.0,66.2,30.09,South,180,5.0,9.0,74,0.00,,---,0.00,VWS V14.01,2013-07-02 15:53:00,
2013-07-02 11:58:00,75.0,65.8,30.09,SE,135,3.0,9.0,73,0.00,,---,0.00,VWS V14.01,2013-07-02 15:58:00,
2013-07-02 12:03:00,76.0,66.7,30.09,SW,225,3.0,10.0,73,0.00,,---,0.00,VWS V14.01,2013-07-02 16:03:00,
2013-07-02 12:08:00,75.0,65.8,30.09,SSW,202,6.0,11.0,73,0.00,,---,0.00,VWS V14.01,2013-07-02 16:08:00,
2013-07-02 12:13:00,76.0,66.7,30.09,SSE,158,5.0,11.0,73,0.00,,---,0.00,VWS V14.01,2013-07-02 16:13:00,
2013-07-02 12:18:00,76.0,65.9,30.09,South,180,7.0,11.0,71,0.00,,---,0.00,VWS V14.01,2013-07-02 16:18:00,
2013-07-02 12:24:00,76.0,65.5,30.09,SSW,202,4.0,8.0,70,0.00,,---,0.00,VWS V14.01,2013-07-02 16:24:00,
2013-07-02 12:29:00,76.0,65.9,30.09,South,180,6.0,8.0,71,0.00,,---,0.00,VWS V14.01,2013-07-02 16:29:00,
2013-07-02 12:34:00,76.0,65.5,30.09,South,180,6.0,10.0,70,0.00,,---,0.00,VWS V14.01,2013-07-02 16:34:00,
2013-07-02 12:39:00,77.0,66.9,30.09,SW,225,3.0,10.0,71,0.00,,---,0.00,VWS V14.01,2013-07-02 16:39:00,
2013-07-02 12:44:00,77.0,66.5,30.09,SSE,158,3.0,8.0,70,0.00,,---,0.00,VWS V14.01,2013-07-02 16:44:00,
2013-07-02 12:49:00,77.0,65.6,30.09,SE,135,3.0,8.0,68,0.00,,---,0.00,VWS V14.01,2013-07-02 16:49:00,
2013-07-02 12:55:00,77.0,65.2,30.09,South,180,7.0,9.0,67,0.00,,---,0.00,VWS V14.01,2013-07-02 16:55:00,
2013-07-02 13:00:00,77.0,65.2,30.09,South,180,6.0,13.0,67,0.00,,---,0.00,VWS V14.01,2013-07-02 17:00:00,
2013-07-02 13:05:00,78.0,66.6,30.09,SSE,158,7.0,8.0,68,0.00,,---,0.00,VWS V14.01,2013-07-02 17:05:00,
2013-07-02 13:10:00,78.0,65.7,30.09,SE,135,7.0,10.0,66,0.00,,---,0.00,VWS V14.01,2013-07-02 17:10:00,
2013-07-02 13:15:00,78.0,66.2,30.09,SW,225,10.0,11.0,67,0.00,,---,0.00,VWS V14.01,2013-07-02 17:15:00,
2013-07-02 13:20:00,78.0,65.3,30.09,West,270,5.0,8.0,65,0.00,,---,0.00,VWS V14.01,2013-07-02 17:20:00,
2013-07-02 13:25:00,79.0,66.2,30.09,SSE,158,6.0,14.0,65,0.00,,---,0.00,VWS V14.01,2013-07-02 17:25:00,
2013-07-02 13:30:00,79.0,66.2,30.09,South,180,5.0,14.0,65,0.00,,---,0.00,VWS V14.01,2013-07-02 17:30:00,
2013-07-02 13:36:00,79.0,65.8,30.08,SSE,158,6.0,14.0,64,0.00,,---,0.00,VWS V14.01,2013-07-02 17:36:00,
2013-07-02 13:41:00,79.0,65.3,30.08,West,270,7.0,7.0,63,0.00,,---,0.00,VWS V14.01,2013-07-02 17:41:00,
2013-07-02 13:46:00,80.0,66.3,30.08,West,270,6.0,10.0,63,0.00,,---,0.00,VWS V14.01,2013-07-02 17:46:00,
2013-07-02 13:51:00,80.0,65.8,30.08,SSW,202,2.0,10.0,62,0.00,,---,0.00,VWS V14.01,2013-07-02 17:51:00,
2013-07-02 13:56:00,80.0,66.3,30.08,SW,225,7.0,10.0,63,0.00,,---,0.00,VWS V14.01,2013-07-02 17:56:00,
2013-07-02 14:01:00,80.0,66.3,30.08,WNW,292,3.0,7.0,63,0.00,,---,0.00,VWS V14.01,2013-07-02 18:01:00,
2013-07-02 14:06:00,81.0,67.2,30.08,West,270,1.0,10.0,63,0.00,,---,0.00,VWS V14.01,2013-07-02 18:06:00,
2013-07-02 14:11:00,81.0,66.8,30.08,South,180,4.0,11.0,62,0.00,,---,0.00,VWS V14.01,2013-07-02 18:11:00,
2013-07-02 14:17:00,81.0,66.3,30.07,SW,225,4.0,11.0,61,0.00,,---,0.00,VWS V14.01,2013-07-02 18:17:00,
2013-07-02 14:22:00,81.0,65.3,30.07,South,180,6.0,8.0,59,0.00,,---,0.00,VWS V14.01,2013-07-02 18:22:00,
2013-07-02 14:27:00,81.0,65.8,30.07,South,180,3.0,8.0,60,0.00,,---,0.00,VWS V14.01,2013-07-02 18:27:00,
2013-07-02 14:32:00,81.0,66.3,30.08,West,270,3.0,8.0,61,0.00,,---,0.00,VWS V14.01,2013-07-02 18:32:00,
2013-07-02 14:37:00,81.0,65.3,30.08,WSW,248,6.0,9.0,59,0.00,,---,0.00,VWS V14.01,2013-07-02 18:37:00,
2013-07-02 14:42:00,81.0,65.8,30.08,SW,225,6.0,6.0,60,0.00,,---,0.00,VWS V14.01,2013-07-02 18:42:00,
2013-07-02 14:47:00,81.0,65.8,30.08,SW,225,5.0,10.0,60,0.00,,---,0.00,VWS V14.01,2013-07-02 18:47:00,
2013-07-02 14:53:00,81.0,65.8,30.08,SW,225,3.0,12.0,60,0.00,,---,0.00,VWS V14.01,2013-07-02 18:53:00,
2013-07-02 14:58:00,81.0,64.8,30.08,WSW,248,7.0,12.0,58,0.00,,---,0.00,VWS V14.01,2013-07-02 18:58:00,
2013-07-02 15:03:00,82.0,66.8,30.08,SW,225,6.0,11.0,60,0.00,,---,0.00,VWS V14.01,2013-07-02 19:03:00,
2013-07-02 15:08:00,82.0,65.3,30.08,SW,225,10.0,12.0,57,0.00,,---,0.00,VWS V14.01,2013-07-02 19:08:00,
2013-07-02 15:13:00,83.0,65.7,30.08,SW,225,5.0,12.0,56,0.00,,---,0.00,VWS V14.01,2013-07-02 19:13:00,
2013-07-02 15:18:00,82.0,65.8,30.08,WNW,292,5.0,12.0,58,0.00,,---,0.00,VWS V14.01,2013-07-02 19:18:00,
2013-07-02 15:23:00,82.0,68.6,30.08,NW,315,2.0,9.0,64,0.00,,---,0.00,VWS V14.01,2013-07-02 19:23:00,
2013-07-02 15:29:00,81.0,68.1,30.08,NW,315,3.0,12.0,65,0.00,,---,0.00,VWS V14.01,2013-07-02 19:29:00,
2013-07-02 15:34:00,80.0,68.1,30.08,WNW,292,10.0,12.0,67,0.00,,---,0.00,VWS V14.01,2013-07-02 19:34:00,
2013-07-02 15:39:00,79.0,67.1,30.08,NNW,338,3.0,12.0,67,0.00,,---,0.00,VWS V14.01,2013-07-02 19:39:00,
2013-07-02 15:44:00,79.0,68.0,30.08,WSW,248,6.0,8.0,69,0.00,,---,0.00,VWS V14.01,2013-07-02 19:44:00,
2013-07-02 15:49:00,80.0,68.9,30.08,WNW,292,4.0,8.0,69,0.00,,---,0.00,VWS V14.01,2013-07-02 19:49:00,
2013-07-02 15:54:00,80.0,69.3,30.08,NNW,338,4.0,10.0,70,0.00,,---,0.00,VWS V14.01,2013-07-02 19:54:00,
2013-07-02 16:00:00,81.0,69.4,30.08,NW,315,2.0,10.0,68,0.00,,---,0.00,VWS V14.01,2013-07-02 20:00:00,
2013-07-02 16:05:00,80.0,68.5,30.08,WNW,292,9.0,9.0,68,0.00,,---,0.00,VWS V14.01,2013-07-02 20:05:00,
2013-07-02 16:10:00,79.0,68.0,30.08,WNW,292,6.0,9.0,69,0.00,,---,0.00,VWS V14.01,2013-07-02 20:10:00,
2013-07-02 16:15:00,77.0,66.9,30.08,West,270,6.0,10.0,71,0.00,,---,0.00,VWS V14.01,2013-07-02 20:15:00,
2013-07-02 16:20:00,76.0,66.7,30.08,WSW,248,8.0,10.0,73,0.00,,---,0.00,VWS V14.01,2013-07-02 20:20:00,
2013-07-02 16:25:00,75.0,66.6,30.08,WNW,292,8.0,12.0,75,0.00,,---,0.00,VWS V14.01,2013-07-02 20:25:00,
2013-07-02 16:30:00,75.0,67.3,30.08,WNW,292,6.0,12.0,77,0.00,,---,0.00,VWS V14.01,2013-07-02 20:30:00,
2013-07-02 16:35:00,75.0,67.3,30.08,West,270,10.0,12.0,77,0.00,,---,0.00,VWS V14.01,2013-07-02 20:35:00,
2013-07-02 16:41:00,75.0,67.7,30.08,WNW,292,7.0,12.0,78,0.00,,---,0.00,VWS V14.01,2013-07-02 20:41:00,
2013-07-02 16:46:00,75.0,67.7,30.08,West,270,6.0,12.0,78,0.00,,---,0.00,VWS V14.01,2013-07-02 20:46:00,
2013-07-02 16:51:00,74.0,66.7,30.08,WNW,292,4.0,12.0,78,0.00,,---,0.00,VWS V14.01,2013-07-02 20:51:00,
2013-07-02 16:56:00,74.0,67.1,30.08,WNW,292,8.0,12.0,79,0.00,,---,0.00,VWS V14.01,2013-07-02 20:56:00,
2013-07-02 17:01:00,75.0,68.1,30.09,WNW,292,7.0,11.0,79,0.00,,---,0.00,VWS V14.01,2013-07-02 21:01:00,
2013-07-02 17:07:00,75.0,68.1,30.08,WNW,292,3.0,11.0,79,0.00,,---,0.00,VWS V14.01,2013-07-02 21:07:00,
2013-07-02 17:12:00,75.0,67.7,30.08,WNW,292,4.0,11.0,78,0.00,,---,0.00,VWS V14.01,2013-07-02 21:12:00,
2013-07-02 17:17:00,75.0,68.1,30.09,NW,315,1.0,11.0,79,0.00,,---,0.00,VWS V14.01,2013-07-02 21:17:00,
2013-07-02 17:22:00,76.0,69.0,30.09,West,270,5.0,8.0,79,0.00,,---,0.00,VWS V14.01,2013-07-02 21:22:00,
2013-07-02 17:27:00,76.0,68.3,30.09,NNW,338,1.0,10.0,77,0.00,,---,0.00,VWS V14.01,2013-07-02 21:27:00,
2013-07-02 17:32:00,77.0,68.9,30.09,WNW,292,6.0,10.0,76,0.00,,---,0.00,VWS V14.01,2013-07-02 21:32:00,
2013-07-02 17:37:00,77.0,68.5,30.09,WSW,248,2.0,10.0,75,0.00,,---,0.00,VWS V14.01,2013-07-02 21:37:00,
2013-07-02 17:42:00,76.0,67.1,30.09,West,270,7.0,8.0,74,0.00,,---,0.00,VWS V14.01,2013-07-02 21:42:00,
2013-07-02 17:48:00,76.0,67.5,30.09,NW,315,5.0,9.0,75,0.00,,---,0.00,VWS V14.01,2013-07-02 21:48:00,
2013-07-02 17:53:00,75.0,66.9,30.09,WNW,292,6.0,9.0,76,0.00,,---,0.00,VWS V14.01,2013-07-02 21:53:00,
2013-07-02 17:58:00,75.0,67.7,30.09,West,270,4.0,9.0,78,0.00,,---,0.00,VWS V14.01,2013-07-02 21:58:00,
2013-07-02 18:03:00,74.0,66.7,30.09,WSW,248,4.0,8.0,78,0.00,,---,0.00,VWS V14.01,2013-07-02 22:03:00,
2013-07-02 18:08:00,74.0,67.1,30.09,WNW,292,6.0,8.0,79,0.00,,---,0.00,VWS V14.01,2013-07-02 22:08:00,
2013-07-02 18:13:00,74.0,67.4,30.09,NW,315,3.0,8.0,80,0.00,,---,0.00,VWS V14.01,2013-07-02 22:13:00,
2013-07-02 18:18:00,74.0,67.4,30.09,WNW,292,5.0,8.0,80,0.00,,---,0.00,VWS V14.01,2013-07-02 22:18:00,
2013-07-02 18:24:00,74.0,67.4,30.09,West,270,2.0,6.0,80,0.00,,---,0.00,VWS V14.01,2013-07-02 22:24:00,
2013-07-02 18:29:00,75.0,68.4,30.09,WNW,292,1.0,6.0,80,0.00,,---,0.00,VWS V14.01,2013-07-02 22:29:00,
2013-07-02 18:34:00,76.0,68.7,30.09,NNW,338,5.0,6.0,78,0.00,,---,0.00,VWS V14.01,2013-07-02 22:34:00,
2013-07-02 18:39:00,76.0,67.9,30.09,NNW,338,5.0,6.0,76,0.00,,---,0.00,VWS V14.01,2013-07-02 22:39:00,
2013-07-02 18:44:00,76.0,67.9,30.09,NNW,338,3.0,5.0,76,0.00,,---,0.00,VWS V14.01,2013-07-02 22:44:00,
2013-07-02 18:49:00,76.0,67.9,30.09,WNW,292,1.0,5.0,76,0.00,,---,0.00,VWS V14.01,2013-07-02 22:49:00,
2013-07-02 18:54:00,76.0,68.3,30.09,West,270,1.0,5.0,77,0.00,,---,0.00,VWS V14.01,2013-07-02 22:54:00,
2013-07-02 18:59:00,76.0,68.3,30.09,NW,315,1.0,5.0,77,0.00,,---,0.00,VWS V14.01,2013-07-02 22:59:00,
2013-07-02 19:05:00,76.0,68.3,30.09,NW,315,3.0,6.0,77,0.00,,---,0.00,VWS V14.01,2013-07-02 23:05:00,
2013-07-02 19:10:00,76.0,68.3,30.09,North,0,3.0,6.0,77,0.00,,---,0.00,VWS V14.01,2013-07-02 23:10:00,
2013-07-02 19:15:00,76.0,68.3,30.09,ENE,68,5.0,6.0,77,0.00,,---,0.00,VWS V14.01,2013-07-02 23:15:00,
2013-07-02 19:20:00,76.0,67.9,30.10,NNE,22,3.0,5.0,76,0.00,,---,0.00,VWS V14.01,2013-07-02 23:20:00,
2013-07-02 19:25:00,76.0,67.9,30.10,North,0,1.0,6.0,76,0.00,,---,0.00,VWS V14.01,2013-07-02 23:25:00,
2013-07-02 19:29:00,76.0,67.9,30.10,North,0,3.0,6.0,76,0.00,,---,0.00,VWS V14.01,2013-07-02 23:29:00,
2013-07-02 19:34:00,76.0,67.9,30.11,ENE,68,4.0,6.0,76,0.00,,---,0.00,VWS V14.01,2013-07-02 23:34:00,
2013-07-02 19:39:00,75.0,67.3,30.11,SSE,158,5.0,10.0,77,0.00,,---,0.00,VWS V14.01,2013-07-02 23:39:00,
2013-07-02 19:44:00,74.0,66.7,30.12,SE,135,5.0,14.0,78,0.00,,---,0.00,VWS V14.01,2013-07-02 23:44:00,
2013-07-02 19:50:00,73.0,67.5,30.13,South,180,8.0,14.0,83,0.04,,---,0.04,VWS V14.01,2013-07-02 23:50:00,
2013-07-02 19:54:00,72.0,67.2,30.13,SSE,158,5.0,14.0,85,0.10,,---,0.10,VWS V14.01,2013-07-02 23:54:00,
2013-07-02 19:59:00,71.0,67.3,30.13,SSW,202,6.0,14.0,88,0.18,,---,0.18,VWS V14.01,2013-07-02 23:59:00,
2013-07-02 20:04:00,71.0,67.6,30.13,SW,225,5.0,6.0,89,0.21,,---,0.21,VWS V14.01,2013-07-03 00:04:00,
2013-07-02 20:09:00,70.0,66.9,30.12,South,180,3.0,6.0,90,0.22,,---,0.22,VWS V14.01,2013-07-03 00:09:00,
2013-07-02 20:14:00,70.0,67.3,30.12,NE,45,3.0,6.0,91,0.22,,---,0.22,VWS V14.01,2013-07-03 00:14:00,
2013-07-02 20:19:00,70.0,67.6,30.13,ESE,112,1.0,6.0,92,0.22,,---,0.22,VWS V14.01,2013-07-03 00:19:00,
2013-07-02 20:23:00,70.0,67.6,30.13,East,90,1.0,3.0,92,0.22,,---,0.22,VWS V14.01,2013-07-03 00:23:00,
2013-07-02 20:24:00,70.0,67.6,30.13,East,90,1.0,3.0,92,0.22,,---,0.22,VWS V14.01,2013-07-03 00:24:00,
2013-07-02 20:28:00,70.0,67.9,30.13,North,0,1.0,3.0,93,0.22,,---,0.22,VWS V14.01,2013-07-03 00:28:00,
2013-07-02 20:33:00,70.0,67.9,30.13,NNW,338,1.0,3.0,93,0.22,,---,0.22,VWS V14.01,2013-07-03 00:33:00,
2013-07-02 20:38:00,70.0,68.2,30.13,North,0,1.0,3.0,94,0.22,,---,0.22,VWS V14.01,2013-07-03 00:38:00,
2013-07-02 20:44:00,70.0,68.2,30.13,ENE,68,1.0,3.0,94,0.22,,---,0.22,VWS V14.01,2013-07-03 00:44:00,
2013-07-02 20:49:00,70.0,68.2,30.13,ENE,68,3.0,5.0,94,0.22,,---,0.22,VWS V14.01,2013-07-03 00:49:00,
2013-07-02 20:54:00,70.0,68.2,30.13,ENE,68,3.0,5.0,94,0.22,,---,0.22,VWS V14.01,2013-07-03 00:54:00,
2013-07-02 20:59:00,70.0,68.2,30.13,East,90,3.0,5.0,94,0.23,,---,0.23,VWS V14.01,2013-07-03 00:59:00,
2013-07-02 21:02:00,70.0,68.5,30.13,SE,135,1.0,4.0,95,0.04,,---,0.23,VWS V14.01,2013-07-03 01:02:00,
2013-07-02 21:06:00,70.0,68.5,30.13,ESE,112,1.0,4.0,95,0.04,,---,0.23,VWS V14.01,2013-07-03 01:06:00,
2013-07-02 21:09:00,70.0,68.5,30.13,ESE,112,0.0,4.0,95,0.04,,---,0.23,VWS V14.01,2013-07-03 01:09:00,
2013-07-02 21:14:00,70.0,68.5,30.13,ESE,112,1.0,4.0,95,0.04,,---,0.23,VWS V14.01,2013-07-03 01:14:00,
2013-07-02 21:19:00,70.0,68.5,30.13,SE,135,1.0,4.0,95,0.04,,---,0.23,VWS V14.01,2013-07-03 01:19:00,
2013-07-02 21:24:00,70.0,68.5,30.13,ENE,68,2.0,3.0,95,0.01,,---,0.23,VWS V14.01,2013-07-03 01:24:00,
2013-07-02 21:28:00,70.0,68.5,30.13,ENE,68,1.0,4.0,95,0.01,,---,0.23,VWS V14.01,2013-07-03 01:28:00,
2013-07-02 21:33:00,70.0,68.5,30.13,East,90,2.0,4.0,95,0.01,,---,0.23,VWS V14.01,2013-07-03 01:33:00,
2013-07-02 21:38:00,70.0,68.5,30.13,ESE,112,2.0,4.0,95,0.01,,---,0.23,VWS V14.01,2013-07-03 01:38:00,
2013-07-02 21:43:00,70.0,68.5,30.13,ESE,112,1.0,3.0,95,0.01,,---,0.23,VWS V14.01,2013-07-03 01:43:00,
2013-07-02 21:48:00,70.0,68.8,30.14,SE,135,0.0,3.0,96,0.01,,---,0.23,VWS V14.01,2013-07-03 01:48:00,
2013-07-02 21:49:00,70.0,68.8,30.14,SE,135,0.0,3.0,96,0.01,,---,0.23,VWS V14.01,2013-07-03 01:49:00,
2013-07-02 21:51:00,70.0,68.8,30.14,SE,135,0.0,3.0,96,0.01,,---,0.23,VWS V14.01,2013-07-03 01:51:00,
2013-07-02 21:56:00,70.0,68.8,30.13,SSW,202,0.0,3.0,96,0.01,,---,0.23,VWS V14.01,2013-07-03 01:56:00,
2013-07-02 22:01:00,70.0,68.8,30.14,ESE,112,2.0,3.0,96,0.00,,---,0.23,VWS V14.01,2013-07-03 02:01:00,
2013-07-02 22:06:00,70.0,68.8,30.14,ESE,112,1.0,3.0,96,0.00,,---,0.23,VWS V14.01,2013-07-03 02:06:00,
2013-07-02 22:12:00,70.0,68.8,30.14,SSE,158,2.0,3.0,96,0.00,,---,0.23,VWS V14.01,2013-07-03 02:12:00,
2013-07-02 22:17:00,70.0,68.8,30.14,SE,135,1.0,3.0,96,0.00,,---,0.23,VWS V14.01,2013-07-03 02:17:00,
2013-07-02 22:22:00,70.0,68.8,30.14,ESE,112,3.0,4.0,96,0.00,,---,0.23,VWS V14.01,2013-07-03 02:22:00,
2013-07-02 22:27:00,70.0,68.8,30.14,SE,135,1.0,4.0,96,0.00,,---,0.23,VWS V14.01,2013-07-03 02:27:00,
2013-07-02 22:32:00,70.0,68.8,30.14,ESE,112,3.0,5.0,96,0.00,,---,0.23,VWS V14.01,2013-07-03 02:32:00,
2013-07-02 22:33:00,70.0,68.8,30.14,SE,135,3.0,5.0,96,0.00,,---,0.23,VWS V14.01,2013-07-03 02:33:00,
2013-07-02 22:38:00,70.0,68.8,30.14,ESE,112,1.0,5.0,96,0.00,,---,0.23,VWS V14.01,2013-07-03 02:38:00,
2013-07-02 22:44:00,69.0,67.8,30.14,SE,135,1.0,2.0,96,0.00,,---,0.23,VWS V14.01,2013-07-03 02:44:00,
2013-07-02 22:46:00,69.0,67.8,30.14,ESE,112,1.0,2.0,96,0.00,,---,0.23,VWS V14.01,2013-07-03 02:46:00,
2013-07-02 22:51:00,69.0,67.8,30.14,SE,135,0.0,3.0,96,0.00,,---,0.23,VWS V14.01,2013-07-03 02:51:00,
2013-07-02 22:56:00,69.0,67.8,30.14,SE,135,1.0,3.0,96,0.00,,---,0.23,VWS V14.01,2013-07-03 02:56:00,
2013-07-02 23:01:00,69.0,67.8,30.13,SE,135,0.0,2.0,96,0.00,,---,0.23,VWS V14.01,2013-07-03 03:01:00,
2013-07-02 23:03:00,69.0,67.8,30.13,SSE,158,1.0,2.0,96,0.00,,---,0.23,VWS V14.01,2013-07-03 03:03:00,
2013-07-02 23:08:00,69.0,67.8,30.13,ESE,112,4.0,4.0,96,0.00,,---,0.23,VWS V14.01,2013-07-03 03:08:00,
2013-07-02 23:13:00,69.0,67.8,30.13,SE,135,2.0,4.0,96,0.00,,---,0.23,VWS V14.01,2013-07-03 03:13:00,
2013-07-02 23:18:00,69.0,67.8,30.13,SE,135,2.0,4.0,96,0.00,,---,0.23,VWS V14.01,2013-07-03 03:18:00,
2013-07-02 23:20:00,69.0,67.8,30.13,SE,135,4.0,4.0,96,0.00,,---,0.23,VWS V14.01,2013-07-03 03:20:00,
2013-07-02 23:25:00,69.0,67.8,30.13,SSE,158,3.0,5.0,96,0.00,,---,0.23,VWS V14.01,2013-07-03 03:25:00,
2013-07-02 23:30:00,68.0,66.8,30.13,SE,135,2.0,6.0,96,0.00,,---,0.23,VWS V14.01,2013-07-03 03:30:00,
2013-07-02 23:35:00,68.0,66.8,30.13,ENE,68,1.0,6.0,96,0.00,,---,0.23,VWS V14.01,2013-07-03 03:35:00,
2013-07-02 23:36:00,68.0,66.8,30.13,ESE,112,4.0,6.0,96,0.00,,---,0.23,VWS V14.01,2013-07-03 03:36:00,
2013-07-02 23:39:00,68.0,66.8,30.13,SSE,158,1.0,6.0,96,0.00,,---,0.23,VWS V14.01,2013-07-03 03:39:00,
2013-07-02 23:44:00,68.0,66.8,30.13,ESE,112,1.0,3.0,96,0.00,,---,0.23,VWS V14.01,2013-07-03 03:44:00,
2013-07-02 23:49:00,68.0,66.8,30.13,East,90,1.0,3.0,96,0.00,,---,0.23,VWS V14.01,2013-07-03 03:49:00,
2013-07-02 23:53:00,68.0,66.8,30.14,ESE,112,1.0,3.0,96,0.00,,---,0.23,VWS V14.01,2013-07-03 03:53:00,
2013-07-02 23:59:00,68.0,67.1,30.14,SE,135,1.0,3.0,97,0.00,,---,0.23,VWS V14.01,2013-07-03 03:59:00,